{"data":{"norad_id":58527,"epoch":"2026-09-20T21:20:38.119776Z","epoch_age_seconds":113325,"freshness":"FRESH","line1":"1 58527U 23191V   26263.88933009  .00000327  00000+0  21406-4 0  9990","line2":"2 58527  43.0050  81.0346 0001401 256.9125 103.1571 15.27576777155327","mean_motion":15.27576777,"eccentricity":0.0001401,"inclination_deg":43.005,"raan_deg":81.0346,"arg_perigee_deg":256.9125,"mean_anomaly_deg":103.1571,"bstar":2.1406e-5,"rev_number":15532,"period_min":94.266947604952,"perigee_km":482.09749335395,"apogee_km":484.02000040223,"semimajor_km":6861.1957468781,"source":"CELESTRAK","updated_at":"2026-09-21T09:00:33.910644Z"}}